Location: Mountain View
(37.3861°N, 122.0839°W)
Time: 01:39:05
(UTC-07:00)

Tiangong 2 - Visible Passes

Search period start: 27 June 2017 00:00
Search period end: 07 July 2017 00:00
Orbit: 391 x 396 km, 42.8° (Epoch: 26 June)

Date Brightness Start Highest point End Pass type
(mag) Time Alt. Az. Time Alt. Az. Time Alt. Az.
27 Jun 3.2 04:31:28 14° S 04:32:55 18° SE 04:35:12 10° E visible
28 Jun 1.3 05:09:46 10° SW 05:12:56 65° SSE 05:16:08 10° ENE visible
29 Jun 2.0 04:15:36 31° S 04:16:21 36° SSE 04:19:22 10° E visible
30 Jun 3.6 03:21:23 15° ESE 03:21:23 15° ESE 03:22:20 10° E visible
30 Jun 1.3 04:53:46 13° WSW 04:56:32 67° NNW 04:59:46 10° ENE visible
01 Jul 1.0 03:59:31 66° SSW 03:59:51 76° SSE 04:03:05 10° ENE visible
02 Jul 3.5 03:05:14 19° E 03:05:14 19° E 03:06:19 10° ENE visible
02 Jul 2.1 04:37:37 13° W 04:40:12 42° NNW 04:43:18 10° ENE visible
03 Jul 1.4 03:43:18 58° NNW 03:43:26 59° NNW 03:46:38 10° ENE visible
03 Jul 2.9 05:17:50 10° WNW 05:20:44 29° N 05:23:37 10° ENE visible
04 Jul 3.7 02:48:59 18° ENE 02:48:59 18° ENE 02:49:57 10° ENE visible
04 Jul 2.7 04:21:21 13° WNW 04:23:53 32° N 04:26:50 10° ENE visible
05 Jul 2.3 03:27:02 39° NNW 03:27:03 39° NNW 03:30:07 10° ENE visible
05 Jul 3.0 05:01:32 10° WNW 05:04:27 30° N 05:07:21 10° ENE visible
06 Jul 4.1 02:32:45 15° ENE 02:32:45 15° ENE 02:33:25 10° ENE visible
06 Jul 3.0 04:05:08 13° WNW 04:07:35 29° N 04:10:28 10° ENE visible
